Ft Riley, KS

8:41 AM CDT on April 25, 2017 (GMT -0500)
Marshall Army Air Field

Weather History for KFRI - December, 2012

Change the Weather History Date:

Monday, December 31, 2012

  Actual Average (KMHK) Record (KMHK)
Temperature  
Mean Temperature 28 °F -  
Max Temperature 36 °F 39 °F 62 °F (2011)
Min Temperature 21 °F 15 °F 1 °F (2001)
Degree Days  
Heating Degree Days 36    
Moisture  
Dew Point 25 °F    
Average Humidity 96    
Maximum Humidity 100    
Minimum Humidity 53    
Precipitation  
Precipitation 0.05 in - - ()
Sea Level Pressure  
Sea Level Pressure 30.15 in    
Wind  
Wind Speed 10 mph (NE)    
Max Wind Speed 15 mph    
Max Gust Speed -    
Visibility 4 miles    
Events Snow    
Averages and records for this station are not official NWS values.
T = Trace of Precipitation, MM = Missing Value Source: NWS Daily Summary

Daily Weather History Graph

Daily Weather History Graph

Search for Another Location

Airport or City:

Trip Planner

Search our weather history database for the weather conditions in past years. The results will help you decide how hot, cold, wet, or windy it might be!

Date:

Astronomy

Dec. 31, 2012 Rise Set
Actual Time 7:46 AM CST 5:14 PM CST
Civil Twilight 7:16 AM CST 5:44 PM CST
Nautical Twilight 6:42 AM CST 6:18 PM CST
Astronomical Twilight 6:10 AM CST 6:50 PM CST
Moon 8:44 PM CST (12/31) 9:29 AM CST (12/31)
Length of Visible Light 10h 28m
Length of Day
9h 28m
Waning Gibbous, 90% of the Moon is Illuminated
Dec 31
Waning Gibbous
Jan 4
Last Quarter
Jan 11
New
Jan 18
First Quarter
Jan 26
Full

Hourly Weather History & Observations

Time (CST) Temp. Windchill Dew Point Humidity Pressure Visibility Wind Dir Wind Speed Gust Speed Precip Events Conditions
12:55 AM 35.4 °F 30.5 °F 20.3 °F 54% 30.13 in 10.0 mi SSW 5.8 mph - N/A   Mostly Cloudy
1:55 AM 36.1 °F 29.3 °F 20.7 °F 53% 30.13 in 10.0 mi SSW 9.2 mph - N/A   Partly Cloudy
2:55 AM 35.4 °F - 21.6 °F 57% 30.13 in 10.0 mi Calm Calm - N/A   Clear
3:55 AM 34.7 °F 30.6 °F 22.3 °F 61% 30.14 in 10.0 mi South 4.6 mph - N/A   Partly Cloudy
4:55 AM 34.5 °F 31.6 °F 21.9 °F 60% 30.12 in 10.0 mi SSW 3.5 mph - N/A   Clear
5:55 AM 32.9 °F 26.7 °F 24.4 °F 71% 30.09 in 10.0 mi North 6.9 mph - N/A   Clear
6:55 AM 31.6 °F 24.4 °F 22.8 °F 70% 30.12 in 10.0 mi North 8.1 mph - N/A   Clear
7:55 AM 30.6 °F 23.8 °F 21.9 °F 70% 30.14 in 10.0 mi NNE 6.9 mph - N/A   Clear
8:22 AM 30.2 °F 23.4 °F 21.2 °F 69% 30.15 in 10.0 mi NNE 6.9 mph - N/A   Partly Cloudy
8:31 AM 30.2 °F 22.6 °F 23.0 °F 75% 30.15 in 10.0 mi NNE 8.1 mph - N/A   Mostly Cloudy
8:55 AM 29.1 °F 21.3 °F 26.4 °F 90% 30.16 in 6.0 mi NNE 8.1 mph - 0.00 in Snow Light Snow
9:02 AM 28.4 °F 18.5 °F 26.6 °F 93% 30.15 in 2.5 mi NNE 11.5 mph - N/A Snow Light Snow
9:04 AM 28.4 °F 19.7 °F 28.4 °F 100% 30.15 in 2.0 mi NNE 9.2 mph - N/A Snow Light Snow
9:08 AM 28.4 °F 19.1 °F 28.4 °F 100% 30.15 in 1.8 mi NE 10.4 mph - N/A Snow Light Snow
9:12 AM 28.4 °F 19.7 °F 28.4 °F 100% 30.15 in 1.5 mi NE 9.2 mph - N/A Snow Light Snow
9:24 AM 28.4 °F 19.1 °F 26.6 °F 93% 30.15 in 1.8 mi NE 10.4 mph - N/A Snow Light Snow
9:28 AM 28.4 °F 19.1 °F 28.4 °F 100% 30.15 in 2.0 mi NE 10.4 mph - N/A Snow Light Snow
9:33 AM 28.4 °F 18.5 °F 28.4 °F 100% 30.15 in 2.5 mi NE 11.5 mph - N/A Snow Light Snow
9:37 AM 28.4 °F 19.1 °F 28.4 °F 100% 30.16 in 3.0 mi NE 10.4 mph - N/A Snow Light Snow
9:45 AM 28.4 °F 19.1 °F 28.4 °F 100% 30.16 in 3.0 mi NNE 10.4 mph - N/A Snow Light Snow
9:55 AM 27.7 °F 18.2 °F 27.5 °F 99% 30.16 in 5.0 mi NNE 10.4 mph - 0.00 in Snow Light Snow
10:03 AM 28.4 °F 18.5 °F 28.4 °F 100% 30.16 in 9.0 mi NE 11.5 mph - N/A   Mostly Cloudy
10:15 AM 28.4 °F 18.0 °F 26.6 °F 93% 30.17 in 6.0 mi NE 12.7 mph - N/A Snow Light Snow
10:39 AM 26.6 °F 18.2 °F 26.6 °F 100% 30.18 in 3.0 mi NE 8.1 mph - N/A Snow Light Snow
10:44 AM 28.4 °F 19.7 °F 28.4 °F 100% 30.17 in 2.5 mi ENE 9.2 mph - N/A Snow Light Snow
10:47 AM 28.4 °F 19.7 °F 28.4 °F 100% 30.18 in 2.0 mi NE 9.2 mph - N/A Snow Light Snow
10:50 AM 28.4 °F 19.7 °F 28.4 °F 100% 30.18 in 1.8 mi NE 9.2 mph - N/A Snow Light Snow
10:52 AM 28.4 °F 18.5 °F 28.4 °F 100% 30.18 in 1.5 mi NE 11.5 mph - N/A Snow Light Snow
10:53 AM 28.4 °F 18.0 °F 28.4 °F 100% 30.18 in 1.5 mi NE 12.7 mph - N/A Snow Light Snow
10:55 AM 27.9 °F 17.8 °F 27.9 °F 100% 30.18 in 1.2 mi NE 11.5 mph - 0.00 in Snow Light Snow
10:56 AM 28.4 °F 18.5 °F 28.4 °F 100% 30.17 in 1.2 mi NE 11.5 mph - N/A Snow Light Snow
11:09 AM 28.4 °F 19.1 °F 28.4 °F 100% 30.17 in 1.0 mi NE 10.4 mph - N/A Snow Light Snow
11:18 AM 28.4 °F 18.5 °F 28.4 °F 100% 30.16 in 1.5 mi NE 11.5 mph - N/A Snow Light Snow
11:19 AM 28.4 °F 18.5 °F 28.4 °F 100% 30.16 in 1.5 mi NE 11.5 mph - N/A Snow Light Snow
11:21 AM 28.4 °F 17.5 °F 28.4 °F 100% 30.16 in 1.8 mi NE 13.8 mph - N/A Snow Light Snow
11:26 AM 28.4 °F 18.0 °F 28.4 °F 100% 30.16 in 2.0 mi NE 12.7 mph - N/A Snow Light Snow
11:37 AM 28.4 °F 17.5 °F 28.4 °F 100% 30.14 in 2.5 mi NE 13.8 mph - N/A Snow Light Snow
11:39 AM 28.4 °F 17.5 °F 28.4 °F 100% 30.14 in 2.5 mi NE 13.8 mph - N/A Snow Light Snow
11:40 AM 28.4 °F 17.5 °F 28.4 °F 100% 30.14 in 2.5 mi NE 13.8 mph - N/A Snow Light Snow
11:41 AM 28.4 °F 18.0 °F 28.4 °F 100% 30.14 in 3.0 mi NE 12.7 mph - N/A Snow Light Snow
11:48 AM 26.6 °F 14.7 °F 26.6 °F 100% 30.13 in 5.0 mi NE 15.0 mph - N/A   Overcast
11:55 AM 27.5 °F 15.9 °F 27.5 °F 100% 30.12 in 7.0 mi NNE 15.0 mph - 0.00 in   Overcast
11:57 AM 26.6 °F 15.7 °F 26.6 °F 100% 30.13 in 7.0 mi NE 12.7 mph - N/A   Overcast
12:09 PM 28.4 °F 17.5 °F 26.6 °F 93% 30.12 in 10.0 mi NE 13.8 mph - N/A   Light Freezing Rain
12:18 PM 28.4 °F 17.5 °F 26.6 °F 93% 30.12 in 10.0 mi NE 13.8 mph - N/A   Overcast
12:40 PM 28.4 °F 19.1 °F 26.6 °F 93% 30.10 in 10.0 mi NE 10.4 mph - N/A   Light Freezing Rain
12:55 PM 27.3 °F 16.1 °F 27.1 °F 99% 30.11 in 4.0 mi NE 13.8 mph - 0.00 in Snow Light Snow
1:07 PM 26.6 °F 16.2 °F 26.6 °F 100% 30.11 in 2.5 mi NE 11.5 mph - N/A Snow Light Snow
1:18 PM 26.6 °F 16.2 °F 26.6 °F 100% 30.10 in 2.0 mi NE 11.5 mph - N/A Snow Light Snow
1:21 PM 26.6 °F 17.5 °F 26.6 °F 100% 30.10 in 1.8 mi NE 9.2 mph - N/A Snow Light Snow
1:23 PM 26.6 °F 16.8 °F 26.6 °F 100% 30.10 in 1.5 mi NE 10.4 mph - N/A Snow Light Snow
1:26 PM 26.6 °F 16.8 °F 26.6 °F 100% 30.10 in 1.2 mi ENE 10.4 mph - N/A Snow Light Snow
1:38 PM 26.6 °F 16.8 °F 26.6 °F 100% 30.10 in 0.8 mi NE 10.4 mph - N/A Snow Light Snow
1:44 PM 26.6 °F 18.2 °F 26.6 °F 100% 30.10 in 1.0 mi NE 8.1 mph - N/A Snow Light Snow
1:55 PM 26.8 °F 17.7 °F 26.8 °F 100% 30.09 in 1.0 mi NE 9.2 mph - 0.01 in Snow Light Snow
1:57 PM 26.6 °F 17.5 °F 26.6 °F 100% 30.09 in 0.8 mi NNE 9.2 mph - N/A Snow Light Snow
2:02 PM 26.6 °F 16.8 °F 26.6 °F 100% 30.09 in 1.0 mi NNE 10.4 mph - N/A Snow Light Snow
2:12 PM 26.6 °F 17.5 °F 26.6 °F 100% 30.09 in 0.8 mi NNE 9.2 mph - N/A Snow Light Snow
2:14 PM 26.6 °F 15.7 °F 26.6 °F 100% 30.09 in 0.8 mi NNE 12.7 mph - N/A Snow Light Snow
2:15 PM 26.6 °F 15.7 °F 26.6 °F 100% 30.09 in 1.0 mi NNE 12.7 mph - N/A Snow Light Snow
2:22 PM 26.6 °F 15.2 °F 26.6 °F 100% 30.08 in 1.5 mi NE 13.8 mph - N/A Snow Light Snow
2:26 PM 26.6 °F 15.7 °F 26.6 °F 100% 30.07 in 1.2 mi NE 12.7 mph - N/A Snow Light Snow
2:32 PM 26.6 °F 15.2 °F 26.6 °F 100% 30.07 in 1.0 mi NE 13.8 mph - N/A Snow Light Snow
2:38 PM 26.6 °F 16.2 °F 26.6 °F 100% 30.09 in 1.2 mi NE 11.5 mph - N/A Snow Light Snow
2:40 PM 26.6 °F 16.2 °F 26.6 °F 100% 30.09 in 1.5 mi NE 11.5 mph - N/A Snow Light Snow
2:42 PM 26.6 °F 16.2 °F 26.6 °F 100% 30.08 in 1.8 mi NE 11.5 mph - N/A Snow Light Snow
2:43 PM 26.6 °F 16.2 °F 26.6 °F 100% 30.08 in 2.0 mi NE 11.5 mph - N/A Snow Light Snow
2:48 PM 26.6 °F 16.2 °F 26.6 °F 100% 30.09 in 2.5 mi NNE 11.5 mph - N/A Snow Light Snow
2:52 PM 26.6 °F 15.7 °F 26.6 °F 100% 30.09 in 3.0 mi NNE 12.7 mph - N/A Snow Light Snow
2:55 PM 25.9 °F 15.3 °F 25.9 °F 100% 30.09 in 3.0 mi NNE 11.5 mph - 0.01 in Snow Light Snow
3:07 PM 24.8 °F 13.4 °F 24.8 °F 100% 30.10 in 5.0 mi NNE 12.7 mph - N/A Snow Light Snow
3:48 PM 24.8 °F 12.9 °F 24.8 °F 100% 30.12 in 3.0 mi NNE 13.8 mph - N/A Snow Light Snow
3:55 PM 24.6 °F 13.8 °F 24.4 °F 99% 30.12 in 3.0 mi NNE 11.5 mph - 0.00 in Snow Light Snow
4:40 PM 23.0 °F 10.6 °F 23.0 °F 100% 30.13 in 2.0 mi NNE 13.8 mph - N/A Snow Light Snow
4:55 PM 23.4 °F 11.1 °F 23.4 °F 100% 30.14 in 2.0 mi NNE 13.8 mph - 0.00 in Snow Light Snow
5:04 PM 23.0 °F 11.1 °F 23.0 °F 100% 30.14 in 2.0 mi NNE 12.7 mph - N/A Snow Light Snow
5:09 PM 23.0 °F 11.1 °F 23.0 °F 100% 30.14 in 2.0 mi NNE 12.7 mph - N/A Snow Light Snow
5:12 PM 23.0 °F 11.1 °F 23.0 °F 100% 30.15 in 1.8 mi NNE 12.7 mph - N/A Snow Light Snow
5:14 PM 23.0 °F 12.4 °F 23.0 °F 100% 30.14 in 1.5 mi NNE 10.4 mph - N/A Snow Light Snow
5:17 PM 23.0 °F 12.4 °F 23.0 °F 100% 30.14 in 1.2 mi NNE 10.4 mph - N/A Snow Light Snow
5:33 PM 23.0 °F 12.4 °F 23.0 °F 100% 30.15 in 1.5 mi NNE 10.4 mph - N/A Snow Light Snow
5:37 PM 23.0 °F 12.4 °F 23.0 °F 100% 30.15 in 1.8 mi NNE 10.4 mph - N/A Snow Light Snow
5:39 PM 23.0 °F 12.4 °F 23.0 °F 100% 30.15 in 1.8 mi NNE 10.4 mph - N/A Snow Light Snow
5:40 PM 23.0 °F 12.4 °F 23.0 °F 100% 30.15 in 2.0 mi NNE 10.4 mph - N/A Snow Light Snow
5:50 PM 23.0 °F 11.7 °F 23.0 °F 100% 30.16 in 2.5 mi NNE 11.5 mph - N/A Snow Light Snow
5:55 PM 23.2 °F 12.0 °F 23.2 °F 100% 30.16 in 2.5 mi NNE 11.5 mph - 0.02 in Snow Light Snow
6:07 PM 23.0 °F 12.4 °F 23.0 °F 100% 30.16 in 3.0 mi NNE 10.4 mph - N/A Snow Light Snow
6:14 PM 23.0 °F 12.4 °F 23.0 °F 100% 30.16 in 2.5 mi NNE 10.4 mph - N/A Snow Light Snow
6:21 PM 23.0 °F 11.7 °F 23.0 °F 100% 30.16 in 2.0 mi NNE 11.5 mph - N/A Snow Light Snow
6:30 PM 23.0 °F 11.7 °F 23.0 °F 100% 30.16 in 1.8 mi NNE 11.5 mph - N/A Snow Light Snow
6:32 PM 23.0 °F 11.7 °F 23.0 °F 100% 30.16 in 2.0 mi NNE 11.5 mph - N/A Snow Light Snow
6:38 PM 23.0 °F 12.4 °F 23.0 °F 100% 30.17 in 2.5 mi NNE 10.4 mph - N/A Snow Light Snow
6:54 PM 23.0 °F 11.1 °F 23.0 °F 100% 30.17 in 3.0 mi NNE 12.7 mph - N/A Snow Light Snow
6:55 PM 23.2 °F 11.4 °F 23.2 °F 100% 30.17 in 3.0 mi NNE 12.7 mph - 0.01 in Snow Light Snow
7:03 PM 23.0 °F 11.7 °F 23.0 °F 100% 30.17 in 3.0 mi NNE 11.5 mph - N/A Snow Light Snow
7:04 PM 23.0 °F 11.1 °F 23.0 °F 100% 30.17 in 2.5 mi NNE 12.7 mph - N/A Snow Light Snow
7:10 PM 23.0 °F 11.7 °F 23.0 °F 100% 30.17 in 3.0 mi NNE 11.5 mph - N/A Snow Light Snow
7:19 PM 23.0 °F 11.1 °F 23.0 °F 100% 30.18 in 3.0 mi NNE 12.7 mph - N/A Snow Light Snow
7:55 PM 23.2 °F 12.6 °F 23.2 °F 100% 30.19 in 5.0 mi NNE 10.4 mph - 0.00 in Snow Light Snow
8:05 PM 23.0 °F 11.1 °F 23.0 °F 100% 30.19 in 6.0 mi NNE 12.7 mph - N/A Snow Light Snow
8:15 PM 23.0 °F 11.7 °F 23.0 °F 100% 30.18 in 6.0 mi NNE 11.5 mph - N/A Snow Light Snow
8:43 PM 23.0 °F 11.7 °F 23.0 °F 100% 30.19 in 5.0 mi NNE 11.5 mph - N/A Snow Light Snow
8:55 PM 23.0 °F 11.7 °F 22.6 °F 99% 30.20 in 3.0 mi NNE 11.5 mph - 0.00 in Snow Light Snow
8:58 PM 23.0 °F 12.4 °F 23.0 °F 100% 30.20 in 3.0 mi NNE 10.4 mph - N/A Snow Light Snow
9:23 PM 23.0 °F 11.7 °F 23.0 °F 100% 30.21 in 2.5 mi NNE 11.5 mph - N/A Snow Light Snow
9:38 PM 23.0 °F 12.4 °F 23.0 °F 100% 30.21 in 2.5 mi NNE 10.4 mph - N/A Snow Light Snow
9:42 PM 23.0 °F 10.1 °F 21.2 °F 93% 30.21 in 3.0 mi NNE 15.0 mph - N/A Snow Light Snow
9:49 PM 23.0 °F 11.7 °F 21.2 °F 93% 30.22 in 3.0 mi NNE 11.5 mph - N/A Snow Light Snow
9:55 PM 22.3 °F 10.8 °F 22.1 °F 99% 30.22 in 4.0 mi NE 11.5 mph - 0.00 in Snow Light Snow
10:49 PM 23.0 °F 13.1 °F 21.2 °F 93% 30.23 in 2.5 mi NNE 9.2 mph - N/A Snow Light Snow
10:55 PM 22.3 °F 13.0 °F 22.3 °F 100% 30.24 in 2.5 mi NE 8.1 mph - 0.00 in Snow Light Snow
11:02 PM 23.0 °F 14.7 °F 23.0 °F 100% 30.24 in 3.0 mi NNE 6.9 mph - N/A Snow Light Snow
11:18 PM 23.0 °F 13.1 °F 23.0 °F 100% 30.24 in 3.0 mi NE 9.2 mph - N/A Snow Light Snow
11:27 PM 21.2 °F 11.7 °F 21.2 °F 100% 30.24 in 3.0 mi NNE 8.1 mph - N/A Snow Light Snow
11:35 PM 21.2 °F 12.6 °F 21.2 °F 100% 30.25 in 4.0 mi NNE 6.9 mph - N/A Snow Light Snow
11:40 PM 21.2 °F 12.6 °F 21.2 °F 100% 30.25 in 4.0 mi NNE 6.9 mph - N/A Snow Light Snow
11:53 PM 21.2 °F 11.7 °F 21.2 °F 100% 30.25 in 7.0 mi NNE 8.1 mph - N/A Snow Light Snow
11:55 PM 21.7 °F 12.3 °F 21.7 °F 100% 30.25 in 7.0 mi NNE 8.1 mph - 0.00 in Snow Light Snow